Home   Weather   St. Petersburg   Past weeks

Flag for USA Past Weather in St. Petersburg, Florida, USA — Yesterday and Last 2 Weeks

Now
83 °F

Passing clouds.


Feels Like: 87 °F
Forecast: 75 / 89 °F
Wind: 13 mph from Southwest

Location: Whitted Airport

Current Time: Apr 30, 2017 at 6:33:58 pm

Latest Report: Apr 30, 2017 at 5:53 pm


Visibility: 10 mi

Pressure: 29.99 "Hg

Humidity: 65%

Dew Point: 70 °F

Location of St. PetersburgLocation

Past Weather in St. Petersburg — Graph

°F

St. Petersburg Temperature Yesterday

Maximum temperature yesterday: 89 °F (at 1:53 pm)
Minimum temperature yesterday: 73 °F (at 5:53 am)
Average temperature yesterday: 80 °F

High & Low Weather Summary for the Past Weeks

 TemperatureHumidityPressure
High89 °F (Apr 29, 1:53 pm)100% (Apr 29, 5:53 am)30.22 "Hg (Apr 29, 5:53 am)
Low66 °F (Apr 25, 6:53 am)41% (Apr 16, 3:53 pm)29.72 "Hg (Apr 24, 5:53 am)
Average76 °F70%29.98 "Hg
* Reported Apr 15 4:53 pm — Apr 30 4:53 pm, St. Petersburg, Weather by CustomWeather, © 2017

Note: Actual official high and low records may vary slightly from our data, if they occured in-between our weather recording intervals... More about our weather records

Advertising

St. Petersburg Weather History for the Previous 24 Hours

Scroll right to see more
 ConditionsComfort  
Time TempWeatherWind HumidityBarometerVisibility
4:53 pm
Sun, Apr 30
86 °FScattered clouds.7 mph55%29.99 "Hg10 mi
3:53 pm89 °FScattered clouds.9 mph52%29.99 "Hg10 mi
2:53 pm88 °FSunny.14 mph52%30.01 "Hg10 mi
1:53 pm87 °FPassing clouds.14 mph57%30.03 "Hg10 mi
12:53 pm85 °FScattered clouds.14 mph59%30.06 "Hg10 mi
11:53 am82 °FSunny.16 mph67%30.07 "Hg10 mi
10:53 am80 °FSunny.21 mph71%30.06 "Hg10 mi
9:53 am77 °FSunny.22 mph82%30.06 "Hg10 mi
9:00 am76 °FPassing clouds.20 mph85%30.07 "Hg10 mi
7:53 am75 °FOvercast.16 mph88%30.09 "Hg10 mi
6:53 am75 °FOvercast.17 mph88%30.09 "Hg10 mi
5:53 am76 °FOvercast.16 mph85%30.07 "Hg10 mi
4:53 am76 °FOvercast.17 mph85%30.06 "Hg10 mi
3:53 am76 °FClear.16 mph85%30.05 "Hg10 mi
2:53 am76 °FClear.17 mph85%30.05 "Hg10 mi
1:53 am76 °FClear.17 mph82%30.06 "Hg10 mi
12:53 am77 °FClear.21 mph77%30.07 "Hg10 mi
11:53 pm
Sat, Apr 29
79 °FClear.20 mph69%30.08 "Hg10 mi
10:53 pm80 °FClear.16 mph64%30.07 "Hg10 mi
9:53 pm82 °FClear.14 mph60%30.06 "Hg10 mi
8:53 pm81 °FClear.3 mph67%30.04 "Hg10 mi
7:53 pm82 °FSunny.7 mph67%30.03 "Hg10 mi
6:53 pm83 °FSunny.8 mph63%30.02 "Hg10 mi
Weather by CustomWeather, © 2017

See weather overviewHow to use our weather pages